Location: Oak Glen
(34.0495°N, 116.9470°E)
Time: 05:15:23
(UTC-08:00)

Vanguard 1 - All Passes

Search period start: 13 December 2017 00:00
Search period end: 23 December 2017 00:00
Orbit: 650 x 3833 km, 34.2° (Epoch: 10 December)

Date Brightness Start Highest point End Pass type
(mag) Time Alt. Az. Time Alt. Az. Time Alt. Az.
13 Dec - 13:38:38 10° S 13:55:53 27° SE 14:11:26 10° E visible
13 Dec - 15:58:29 10° SW 16:21:09 58° SSE 16:36:59 10° ENE daylight
13 Dec - 18:25:10 10° WSW 18:46:33 86° SSE 18:58:26 10° E daylight
13 Dec - 20:54:21 10° W 21:10:23 86° S 21:18:35 10° ESE daylight
13 Dec - 23:21:50 10° W 23:31:16 39° SW 23:36:55 10° SSE daylight
14 Dec - 13:57:41 10° SSW 14:17:02 35° SE 14:34:05 10° E visible
14 Dec - 16:19:26 10° SW 16:42:37 67° SSE 16:58:16 10° ENE daylight
14 Dec - 18:47:07 10° W 19:08:05 90° S 19:19:32 10° E daylight
14 Dec - 21:16:17 10° W 21:31:35 79° SSW 21:39:28 10° ESE daylight
14 Dec - 23:43:50 10° W 23:51:48 28° SW 23:56:58 10° SSE daylight
15 Dec - 12:04:51 10° SSE 12:13:51 14° SE 12:22:59 10° ESE visible
15 Dec - 14:17:22 10° SSW 14:38:15 43° SE 14:56:10 10° E visible
15 Dec - 16:40:42 10° WSW 17:04:09 75° SSE 17:19:31 10° ENE daylight
15 Dec - 19:09:11 10° W 19:29:37 89° N 19:40:36 10° E daylight
15 Dec - 21:38:09 10° WNW 21:52:40 68° SSW 22:00:15 10° ESE daylight
16 Dec - 00:06:19 10° W 00:12:10 18° SW 00:16:27 10° S daylight
16 Dec - 12:20:53 10° S 12:34:49 21° SE 12:48:59 10° E visible
16 Dec - 14:37:33 10° SW 14:59:32 52° SSE 15:17:54 10° ENE visible
16 Dec - 17:02:15 10° WSW 17:25:44 82° SSE 17:40:42 10° E daylight
16 Dec - 19:31:15 10° W 19:51:07 90° S 20:01:39 10° E daylight
16 Dec - 22:00:01 10° WNW 22:13:35 56° SSW 22:20:52 10° SE daylight
17 Dec - 00:30:29 10° WSW 00:32:26 11° SW 00:34:13 10° SW daylight
17 Dec - 12:39:02 10° S 12:55:45 28° SE 13:12:43 10° E visible
17 Dec - 14:58:07 10° SW 15:20:54 61° SSE 15:39:25 10° ENE daylight
17 Dec - 17:24:00 10° WSW 17:47:24 87° SSE 18:01:52 10° E daylight
17 Dec - 19:53:19 10° W 20:12:33 86° SSW 20:22:40 10° ESE daylight
17 Dec - 22:21:57 10° WNW 22:34:18 43° SW 22:41:16 10° SSE daylight
18 Dec - 12:58:08 10° SSW 13:16:43 36° SE 13:35:27 10° E visible
18 Dec - 15:19:01 10° SW 15:42:23 69° SSE 16:00:49 10° ENE daylight
18 Dec - 17:45:56 10° W 18:09:04 90° NNW 18:23:02 10° E daylight
18 Dec - 20:15:19 10° W 20:33:52 79° SSW 20:43:35 10° ESE daylight
18 Dec - 22:44:03 10° W 22:54:49 32° SW 23:01:21 10° SSE daylight
19 Dec - 11:06:03 10° SSE 11:14:13 13° SE 11:22:57 10° ESE visible
19 Dec - 13:17:52 10° SSW 13:37:45 45° SE 13:57:37 10° ENE visible
19 Dec - 15:40:14 10° WSW 16:03:59 77° SSE 16:22:09 10° ENE daylight
19 Dec - 18:07:57 10° W 18:30:46 89° N 18:44:12 10° E daylight
19 Dec - 20:37:18 10° WNW 20:55:02 70° SSW 21:04:23 10° ESE daylight
19 Dec - 23:06:34 10° W 23:15:10 23° SW 23:20:57 10° S daylight
20 Dec - 11:22:07 10° S 11:34:55 20° SE 11:49:11 10° E visible
20 Dec - 13:38:02 10° SW 13:58:55 53° SE 14:19:28 10° ENE visible
20 Dec - 16:01:41 10° WSW 16:25:40 83° SSE 16:43:27 10° E daylight
20 Dec - 18:30:00 10° W 18:52:25 90° S 19:05:20 10° E daylight
20 Dec - 20:59:14 10° WNW 21:16:01 59° SSW 21:25:02 10° SE daylight
20 Dec - 23:30:00 10° W 23:35:23 15° SW 23:39:36 10° SSW daylight
21 Dec - 11:40:20 10° S 11:55:37 28° SE 12:13:04 10° E visible
21 Dec - 13:58:34 10° SW 14:20:12 62° SSE 14:41:06 10° ENE visible
21 Dec - 16:23:21 10° WSW 16:47:27 88° S 17:04:45 10° E daylight
21 Dec - 18:52:03 10° W 19:13:59 86° SSW 19:26:25 10° ESE daylight
21 Dec - 21:21:16 10° WNW 21:36:47 47° SW 21:45:26 10° SSE daylight
22 Dec - 11:59:30 10° SSW 12:16:21 36° SE 12:35:55 10° E visible
22 Dec - 14:19:25 10° SW 14:41:40 71° SSE 15:02:38 10° ENE visible
22 Dec - 16:45:10 10° W 17:09:17 90° NNW 17:26:03 10° E daylight
22 Dec - 19:14:03 10° W 19:35:26 79° SSW 19:47:24 10° ESE daylight
22 Dec - 21:43:28 10° WNW 21:57:20 36° SW 22:05:33 10° SSE daylight
